Location: Ch�risy
(50.2331°N, 2.9131°E)
Time: 02:11:10
(UTC+00:00)

CZ-4 R/B - Pass Details

Date: 17 January 2021
Orbit: 530 x 599 km, 97.7° (Epoch: 24 February)

Event Time Altitude Azimuth Distance (km) Brightness Sun altitude
Rises 19:26:29 0° 206° (SSW) 2,811 5.2 -29.6°
Reaches altitude 10° 19:29:15 10° 226° (SW) 1,905 4.5 -30.1°
Maximum altitude 19:32:04 18° 269° (W) 1,461 4.2 -30.5°
Drops below altitude 10° 19:34:54 10° 313° (NW) 1,890 4.6 -31.0°
Sets 19:37:38 0° 333° (NNW) 2,779 5.3 -31.4°
